Location: Aalen
(48.8330°N, 10.1000°E)
Time: 17:40:01
(UTC+01:00)

UWE-3 - Pass Details

Date: 09 October 2025
Orbit: 548 x 618 km, 97.8° (Epoch: 12 November)

Event Time Altitude Azimuth Distance (km) Brightness Sun altitude
Rises 04:18:52 0° 11° (N) 2,745 ? -31.4°
Reaches altitude 10° 04:21:00 10° 9° (N) 1,853 ? -31.1°
Enters shadow 04:21:42 15° 8° (N) 1,565 ? -31.0°
